Back to catalog

STARLINK-37069

AliveCommunicationsSSO
NORAD 68158·PAYLOAD·🇺🇸 United States

Launched Mar 13, 2026 from Vandenberg Space Force Base

Loading…

Next Passes (next 24 hours)

TLE

FreshSource: CelesTrak SupGP

Epoch: Sep 14, 2026, 14:47 UTC

1 68158C 26049S   26257.61645833 -.00030746  00000+0 -95428-3 0  2576
2 68158  97.2843 277.6051 0001584  93.5980 353.6827 15.33459529    14

Track STARLINK-37069 in real time with AllMySat

Download on the App Store